Location: Ch�tillon
(48.8024°N, 2.2935°E)
Time: 12:31:52
(UTC+00:00)

LO-87 - Pass Details

Date: 30 June 2022
Orbit: 451 x 466 km, 97.4° (Epoch: 08 August)

Event Time Altitude Azimuth Distance (km) Brightness Sun altitude
Exits shadow 00:00:12 26° 247° (WSW) 935 ? -18.1°
Maximum altitude 00:00:45 28° 264° (W) 905 ? -18.1°
Drops below altitude 10° 00:03:47 10° 325° (NW) 1,623 ? -18.0°
Sets 00:06:03 0° 338° (NNW) 2,507 ? -18.0°
